Time,TemperatureF,DewpointF,PressureIn,WindDirection,WindDirectionDegrees,WindSpeedMPH,WindSpeedGustMPH,Humidity,HourlyPrecipIn,Conditions,Clouds,dailyrainin,SolarRadiationWatts/m^2,SoftwareType,DateUTC
2013-03-03 01:00:00,41.0,32.0,29.77,South,177,4.0,-999.0,69,-99.99,,,-99.99,0.050000,,2013-03-03 08:00:00,
2013-03-03 01:54:00,41.0,32.0,29.77,South,177,4.0,-999.0,69,-99.99,,,-99.99,0.050000,,2013-03-03 08:54:00,
2013-03-03 02:00:00,40.0,32.0,29.75,SSW,198,4.0,-999.0,72,-99.99,,,-99.99,0.050000,,2013-03-03 09:00:00,
2013-03-03 02:52:00,40.0,32.0,29.75,SSW,198,4.0,-999.0,72,-99.99,,,-99.99,0.050000,,2013-03-03 09:52:00,
2013-03-03 03:00:00,37.0,31.0,29.72,SSW,193,6.0,-999.0,78,-99.99,,,-99.99,0.050000,,2013-03-03 10:00:00,
2013-03-03 03:52:00,37.0,31.0,29.72,SSW,193,6.0,-999.0,78,-99.99,,,-99.99,0.050000,,2013-03-03 10:52:00,
2013-03-03 04:00:00,37.0,30.0,29.69,SSW,205,6.0,-999.0,76,-99.99,,,-99.99,0.050000,,2013-03-03 11:00:00,
2013-03-03 04:53:00,37.0,30.0,29.69,SSW,205,6.0,-999.0,76,-99.99,,,-99.99,0.050000,,2013-03-03 11:53:00,
2013-03-03 05:00:00,38.0,31.0,29.67,WSW,242,5.0,-999.0,76,-99.99,,,-99.99,0.050000,,2013-03-03 12:00:00,
2013-03-03 05:53:00,38.0,31.0,29.67,WSW,242,5.0,-999.0,76,-99.99,,,-99.99,0.050000,,2013-03-03 12:53:00,
2013-03-03 06:00:00,41.0,33.0,29.67,SW,227,6.0,-999.0,73,-99.99,,,-99.99,0.050000,,2013-03-03 13:00:00,
2013-03-03 06:52:00,41.0,33.0,29.67,SW,227,6.0,-999.0,73,-99.99,,,-99.99,0.050000,,2013-03-03 13:52:00,
2013-03-03 07:00:00,41.0,33.0,29.65,SW,223,8.0,-999.0,73,-99.99,,,-99.99,2.720000,,2013-03-03 14:00:00,
2013-03-03 07:52:00,41.0,33.0,29.65,SW,223,8.0,-999.0,73,-99.99,,,-99.99,2.720000,,2013-03-03 14:52:00,
2013-03-03 08:00:00,43.0,34.0,29.64,SW,231,9.0,-999.0,70,-99.99,,,-99.99,31.860001,,2013-03-03 15:00:00,
2013-03-03 08:52:00,43.0,34.0,29.64,SW,231,9.0,-999.0,70,-99.99,,,-99.99,31.860001,,2013-03-03 15:52:00,
2013-03-03 09:00:00,46.0,35.0,29.64,WSW,249,11.0,-999.0,66,-99.99,,,-99.99,54.480000,,2013-03-03 16:00:00,
2013-03-03 09:52:00,46.0,35.0,29.64,WSW,249,11.0,-999.0,66,-99.99,,,-99.99,54.480000,,2013-03-03 16:52:00,
2013-03-03 10:00:00,47.0,38.0,29.62,WSW,254,5.0,-999.0,70,-99.99,,,-99.99,72.410004,,2013-03-03 17:00:00,
2013-03-03 10:52:00,47.0,38.0,29.62,WSW,254,5.0,-999.0,70,-99.99,,,-99.99,72.410004,,2013-03-03 17:52:00,
2013-03-03 11:00:00,48.0,35.0,29.60,SSW,213,5.0,-999.0,60,-99.99,,,-99.99,141.899994,,2013-03-03 18:00:00,
2013-03-03 11:52:00,48.0,35.0,29.60,SSW,213,5.0,-999.0,60,-99.99,,,-99.99,141.899994,,2013-03-03 18:52:00,
2013-03-03 12:00:00,48.0,35.0,29.57,SSW,207,9.0,-999.0,61,-99.99,,,-99.99,158.300003,,2013-03-03 19:00:00,
2013-03-03 12:52:00,48.0,35.0,29.57,SSW,207,9.0,-999.0,61,-99.99,,,-99.99,158.300003,,2013-03-03 19:52:00,
2013-03-03 13:00:00,49.0,36.0,29.55,SW,221,10.0,-999.0,59,-99.99,,,-99.99,165.100006,,2013-03-03 20:00:00,
2013-03-03 13:53:00,49.0,36.0,29.55,SW,221,10.0,-999.0,59,-99.99,,,-99.99,165.100006,,2013-03-03 20:53:00,
2013-03-03 14:00:00,52.0,35.0,29.52,SW,227,11.0,-999.0,51,-99.99,,,-99.99,202.399994,,2013-03-03 21:00:00,
2013-03-03 14:52:00,52.0,35.0,29.52,SW,227,11.0,-999.0,51,-99.99,,,-99.99,202.399994,,2013-03-03 21:52:00,
2013-03-03 15:00:00,52.0,34.0,29.51,West,267,12.0,-999.0,51,-99.99,,,-99.99,236.199997,,2013-03-03 22:00:00,
2013-03-03 15:52:00,52.0,34.0,29.51,West,267,12.0,-999.0,51,-99.99,,,-99.99,236.199997,,2013-03-03 22:52:00,
2013-03-03 16:00:00,43.0,37.0,29.53,NNW,333,10.0,-999.0,80,-99.99,,,-99.99,101.599998,,2013-03-03 23:00:00,
2013-03-03 16:52:00,43.0,37.0,29.53,NNW,333,10.0,-999.0,80,-99.99,,,-99.99,101.599998,,2013-03-03 23:52:00,
2013-03-03 17:00:00,33.0,32.0,29.58,NW,309,16.0,-999.0,95,-99.99,,,-99.99,13.620000,,2013-03-04 00:00:00,
2013-03-03 17:52:00,33.0,32.0,29.58,NW,309,16.0,-999.0,95,-99.99,,,-99.99,13.620000,,2013-03-04 00:52:00,
2013-03-03 18:00:00,33.0,31.0,29.57,NW,315,21.0,-999.0,95,-99.99,,,-99.99,5.150000,,2013-03-04 01:00:00,
2013-03-03 18:52:00,33.0,31.0,29.57,NW,315,21.0,-999.0,95,-99.99,,,-99.99,5.150000,,2013-03-04 01:52:00,
2013-03-03 19:00:00,32.0,32.0,29.59,NW,307,23.0,-999.0,98,-99.99,,,-99.99,0.060000,,2013-03-04 02:00:00,
2013-03-03 19:52:00,32.0,32.0,29.59,NW,307,23.0,-999.0,98,-99.99,,,-99.99,0.060000,,2013-03-04 02:52:00,
2013-03-03 20:00:00,32.0,31.0,29.62,WNW,303,23.0,-999.0,99,-99.99,,,-99.99,0.030000,,2013-03-04 03:00:00,
2013-03-03 20:52:00,32.0,31.0,29.62,WNW,303,23.0,-999.0,99,-99.99,,,-99.99,0.030000,,2013-03-04 03:52:00,
2013-03-03 21:00:00,32.0,31.0,29.64,WNW,286,17.0,-999.0,99,-99.99,,,-99.99,0.040000,,2013-03-04 04:00:00,
2013-03-03 21:52:00,32.0,31.0,29.64,WNW,286,17.0,-999.0,99,-99.99,,,-99.99,0.040000,,2013-03-04 04:52:00,
2013-03-03 22:00:00,32.0,32.0,29.64,WNW,289,18.0,-999.0,99,-99.99,,,-99.99,0.050000,,2013-03-04 05:00:00,
2013-03-03 22:52:00,32.0,32.0,29.64,WNW,289,18.0,-999.0,99,-99.99,,,-99.99,0.050000,,2013-03-04 05:52:00,
2013-03-03 23:00:00,32.0,31.0,29.64,West,266,17.0,-999.0,97,-99.99,,,-99.99,0.040000,,2013-03-04 06:00:00,
2013-03-03 23:52:00,32.0,31.0,29.64,West,266,17.0,-999.0,97,-99.99,,,-99.99,0.040000,,2013-03-04 06:52:00,